CAPE
0 0 0 0 0 0 0 0 0 0 0 0 0 0 0 0 0 0 0 0 0 0 0 0 0 0 1 0 0 0 0 0 0 6 287 498 566 574 486 283 180 59 8
0 0 0 0 0 0 0 0 0 0 0 0 0 0 0 0 0 0 0 0 0 0 2 5 5 8 11 9 3 0 0 0 0 0 2 61 515 515 538 428 271 105 9
0 0 0 0 0 0 0 0 0 0 0 0 0 0 0 0 0 0 0 0 0 0 0 0 0 0 0 6 13 23 12 1 1 0 0 1 19 470 455 471 378 194 59
0 0 0 0 0 0 0 0 0 0 0 0 0 0 0 0 0 0 0 0 0 0 0 0 0 0 2 13 45 37 50 30 14 11 0 0 1 63 551 496 447 290 129
0 0 0 0 0 0 0 0 0 0 0 0 0 0 0 0 0 0 0 0 0 0 0 0 0 8 24 25 25 27 22 9 24 38 14 0 2 1 251 516 420 371 207
0 0 0 0 0 0 0 0 0 0 0 0 0 0 0 0 0 0 0 0 0 0 0 0 0 0 0 3 12 14 14 11 13 11 16 24 17 5 3 94 437 370 306
0 0 0 0 0 0 0 0 0 0 0 0 0 0 0 0 0 0 0 0 0 0 0 0 0 0 0 0 7 11 12 10 14 13 7 6 4 1 2 3 7 379 292
0 0 0 0 0 0 0 0 0 0 0 0 0 0 0 0 0 0 0 0 0 0 0 4 0 0 0 0 1 8 11 8 10 11 10 7 6 1 0 1 4 0 192
0 0 0 0 0 0 0 0 0 0 0 0 0 0 0 0 0 0 0 0 0 0 0 0 0 0 0 0 1 3 13 6 9 11 10 9 7 6 3 1 3 5 3
0 0 0 0 0 0 0 0 0 0 0 0 0 0 0 0 0 0 0 0 0 0 0 0 0 0 0 0 1 9 14 7 8 11 12 9 8 6 3 3 2 4 5
0 0 0 0 0 0 0 0 0 0 0 0 0 0 0 0 0 0 0 0 0 0 0 0 0 0 0 0 2 5 14 8 9 11 12 10 10 9 8 3 3 3 3
0 0 0 0 0 0 0 0 0 0 0 0 0 0 0 0 0 0 0 0 0 0 0 0 0 1 2 1 9 7 15 9 9 12 9 9 13 11 4 3 4 5 5
0 0 0 0 0 0 0 0 0 0 0 0 0 0 0 0 0 0 0 0 0 0 0 0 0 2 0 0 1 11 10 10 8 8 10 12 9 11 12 10 4 4 3
0 0 0 0 0 0 0 0 0 0 0 0 0 0 0 0 0 0 0 0 0 0 0 0 0 0 0 0 1 9 3 8 9 8 10 13 15 14 12 10 11 11 2
0 0 0 0 0 0 0 0 0 0 0 0 0 0 0 0 0 0 0 0 0 0 0 0 0 0 0 0 0 1 7 3 1 3 9 12 14 14 14 11 10 8 7
0 0 0 0 0 0 0 0 0 0 0 0 0 0 0 0 0 0 0 0 0 0 0 0 0 0 0 0 0 0 2 0 8 3 0 8 12 13 13 13 11 10 8
0 0 0 0 0 0 0 0 0 0 0 0 0 0 0 0 0 0 0 0 0 0 0 0 0 0 0 0 0 0 0 3 0 1 1 1 2 3 9 10 11 10 9
0 0 0 0 0 0 0 0 0 0 0 0 0 0 0 0 0 0 0 0 0 0 0 0 0 0 0 0 0 0 0 0 0 0 2 4 2 4 2 7 10 10 9
0 0 0 0 0 0 0 0 0 0 0 0 0 0 0 0 0 0 0 0 0 0 0 0 0 0 0 0 0 0 0 0 2 0 0 0 12 3 0 1 6 9 9
0 0 0 0 0 0 0 0 0 0 0 0 0 0 0 0 0 0 0 0 0 0 0 0 0 0 0 0 0 0 0 0 0 0 0 0 1 3 2 0 1 5 6
0 0 0 0 0 0 0 0 0 0 0 0 0 0 0 0 0 0 0 0 0 0 0 0 0 0 0 0 0 0 0 0 0 0 0 0 0 0 0 0 1 2 2
0 0 0 0 0 0 0 0 0 0 0 0 0 0 0 0 0 0 0 0 0 0 0 0 0 0 0 0 0 0 0 0 0 0 0 0 0 0 0 0 1 1 1
0 0 0 0 0 0 0 0 0 0 0 0 0 0 0 0 0 0 0 0 0 0 0 0 0 0 0 0 0 0 0 0 0 0 0 0 0 0 0 0 0 1 0
0 0 0 0 0 0 0 0 0 0 0 0 0 0 0 0 0 0 0 0 0 0 0 0 0 0 0 0 0 0 0 0 0 0 0 0 0 0 0 0 0 1 0
0 0 0 0 0 0 0 0 0 0 0 0 0 0 0 0 0 0 0 0 0 0 0 4 0 0 0 1 0 0 0 0 0 0 0 0 0 0 0 0 0 0 1
0 0 0 0 0 0 0 0 0 0 0 0 0 0 0 0 0 0 0 0 0 0 0 0 0 0 0 0 0 0 0 0 0 0 0 0 0 0 0 0 0 0 0
CIN
-0 -0 -0 -0 -0 -0 -0 -0 -0 -0 -0 -0 -0 -0 -0 -0 -0 -0 -0 -0 -0 -0 -0 -0 -0 -0 -0 -0 -0 -0 -0 -0 -0 -49 -1 -0 -7 -8 -8 -11 -23 -44 -96
-0 -0 -0 -0 -0 -0 -0 -0 -0 -0 -0 -0 -0 -0 -0 -0 -0 -0 -0 -0 -0 -0 -3 -4 -2 -1 -0 -0 -0 -0 -0 -0 -0 -0 -0 -51 -0 -13 -14 -16 -24 -40 -62
-0 -0 -0 -0 -0 -0 -0 -0 -0 -0 -0 -0 -0 -0 -0 -0 -0 -0 -0 -0 -0 -0 -0 -0 -0 -0 -0 -0 -0 -0 -0 -0 -0 -0 -0 -0 -13 -0 -12 -22 -37 -45 -48
-0 -0 -0 -0 -0 -0 -0 -0 -0 -0 -0 -0 -0 -0 -0 -0 -0 -0 -0 -0 -0 -0 -0 -0 -0 -1 -11 -6 -0 -0 -0 -0 -0 -0 -0 -0 -0 -54 -0 -14 -25 -44 -56
-0 -0 -0 -0 -0 -0 -0 -0 -0 -0 -0 -0 -0 -0 -0 -0 -0 -0 -0 -0 -0 -0 -0 -0 -0 -24 -7 -0 -0 -1 -2 -0 -0 -0 -0 -0 -0 -0 -21 -0 -20 -29 -45
-0 -0 -0 -0 -0 -0 -0 -0 -0 -0 -0 -0 -0 -0 -0 -0 -0 -0 -0 -0 -0 -0 -0 -0 -0 -0 -0 -0 -0 -0 -0 -0 -0 -1 -0 -0 -0 -1 -0 -51 -0 -19 -32
-0 -0 -0 -0 -0 -0 -0 -0 -0 -0 -0 -0 -0 -0 -0 -0 -0 -0 -0 -0 -0 -0 -0 -0 -0 -0 -0 -0 -0 -0 -0 -0 -0 -0 -0 -0 -0 -0 -0 -0 -5 -0 -19
-0 -0 -0 -0 -0 -0 -0 -0 -0 -0 -0 -0 -0 -0 -0 -0 -0 -0 -0 -0 -0 -0 -0 -0 -0 -0 -0 -0 -0 -0 -0 -0 -0 -0 -0 -0 -0 -0 -10 -0 -0 -0 -1
-0 -0 -0 -0 -0 -0 -0 -0 -0 -0 -0 -0 -0 -0 -0 -0 -0 -0 -0 -0 -0 -0 -0 -0 -0 -0 -0 -0 -0 -0 -0 -0 -0 -0 -0 -0 -0 -0 -0 -0 -0 -0 -0
-0 -0 -0 -0 -0 -0 -0 -0 -0 -0 -0 -0 -0 -0 -0 -0 -0 -0 -0 -0 -0 -0 -0 -0 -0 -0 -0 -0 -0 -0 -0 -0 -0 -0 -0 -0 -0 -0 -0 -0 -0 -0 -0
-0 -0 -0 -0 -0 -0 -0 -0 -0 -0 -0 -0 -0 -0 -0 -0 -0 -0 -0 -0 -0 -0 -0 -0 -0 -0 -0 -0 -0 -0 -0 -0 -0 -0 -0 -0 -0 -0 -0 -0 -0 -0 -0
-0 -0 -0 -0 -0 -0 -0 -0 -0 -0 -0 -0 -0 -0 -0 -0 -0 -0 -0 -0 -0 -0 -0 -0 -0 -4 -2 -0 -0 -0 -0 -0 -0 -0 -0 -0 -0 -0 -0 -0 -0 -0 -0
-0 -0 -0 -0 -0 -0 -0 -0 -0 -0 -0 -0 -0 -0 -0 -0 -0 -0 -0 -0 -0 -0 -0 -0 -0 -1 -0 -0 -0 -0 -0 -0 -0 -0 -0 -0 -0 -0 -0 -0 -0 -0 -0
-0 -0 -0 -0 -0 -0 -0 -0 -0 -0 -0 -0 -0 -0 -0 -0 -0 -0 -0 -0 -0 -0 -0 -0 -0 -0 -0 -0 -0 -0 -0 -0 -0 -0 -0 -0 -0 -0 -0 -0 -0 -0 -0
-0 -0 -0 -0 -0 -0 -0 -0 -0 -0 -0 -0 -0 -0 -0 -0 -0 -0 -0 -0 -0 -0 -0 -0 -0 -0 -0 -0 -0 -0 -0 -0 -0 -0 -0 -0 -0 -0 -0 -0 -0 -0 -0
-0 -0 -0 -0 -0 -0 -0 -0 -0 -0 -0 -0 -0 -0 -0 -0 -0 -0 -0 -0 -0 -0 -0 -0 -0 -0 -0 -0 -0 -0 -0 -0 -0 -0 -0 -0 -0 -0 -0 -0 -0 -0 -0
-0 -0 -0 -0 -0 -0 -0 -0 -0 -0 -0 -0 -0 -0 -0 -0 -0 -0 -0 -0 -0 -0 -0 -0 -0 -0 -0 -0 -0 -0 -0 -0 -0 -0 -0 -0 -0 -0 -0 -0 -0 -0 -0
-0 -0 -0 -0 -0 -0 -0 -0 -0 -0 -0 -0 -0 -0 -0 -0 -0 -0 -0 -0 -0 -0 -0 -0 -0 -0 -0 -0 -0 -0 -0 -0 -0 -0 -1 -0 -0 -0 -0 -0 -0 -0 -0
-0 -0 -0 -0 -0 -0 -0 -0 -0 -0 -0 -0 -0 -0 -0 -0 -0 -0 -0 -0 -0 -0 -0 -0 -0 -0 -0 -0 -0 -0 -0 -0 -0 -0 -0 -0 -0 -0 -0 -0 -0 -0 -0
-0 -0 -0 -0 -0 -0 -0 -0 -0 -0 -0 -0 -0 -0 -0 -0 -0 -0 -0 -0 -0 -0 -0 -0 -0 -0 -0 -0 -0 -0 -0 -0 -0 -0 -0 -0 -0 -0 -0 -0 -0 -0 -0
-0 -0 -0 -0 -0 -0 -0 -0 -0 -0 -0 -0 -0 -0 -0 -0 -0 -0 -0 -0 -0 -0 -0 -0 -0 -0 -0 -0 -0 -0 -0 -0 -0 -0 -0 -0 -0 -0 -0 -0 -0 -0 -0
-0 -0 -0 -0 -0 -0 -0 -0 -0 -0 -0 -0 -0 -0 -0 -0 -0 -0 -0 -0 -0 -0 -0 -0 -0 -0 -0 -0 -0 -0 -0 -0 -0 -0 -0 -0 -0 -0 -0 -0 -1 -0 -0
-0 -0 -0 -0 -0 -0 -0 -0 -0 -0 -0 -0 -0 -0 -0 -0 -0 -0 -0 -0 -0 -0 -0 -0 -0 -0 -0 -0 -0 -0 -0 -0 -0 -0 -0 -0 -0 -0 -0 -0 -0 -1 -0
-0 -0 -0 -0 -0 -0 -0 -0 -0 -0 -0 -0 -0 -0 -0 -0 -0 -0 -0 -0 -0 -0 -0 -0 -0 -0 -0 -0 -0 -0 -0 -0 -0 -0 -0 -0 -0 -0 -0 -0 -0 -0 -0
-0 -0 -0 -0 -0 -0 -0 -0 -0 -0 -0 -0 -0 -0 -0 -0 -0 -0 -0 -0 -0 -0 -0 -0 -1 -0 -0 -0 -0 -0 -0 -0 -0 -0 -0 -0 -0 -0 -0 -0 -0 -0 -0
-0 -0 -0 -0 -0 -0 -0 -0 -0 -0 -0 -0 -0 -0 -0 -0 -0 -0 -0 -0 -0 -0 -0 -0 -0 -0 -0 -0 -0 -0 -0 -0 -0 -0 -0 -0 -0 -0 -0 -0 -0 -0 -0
Wind_Speed
21 23 24 26 29 30 31 32 33 33 34 34 34 33 33 34 33 33 33 34 32 33 34 35 34 34 35 35 36 37 39 40 40 39 36 35 32 24 20 18 17 16 14
21 22 23 26 27 29 30 32 33 34 34 33 34 33 34 34 33 32 32 33 35 33 29 30 33 34 35 36 37 37 38 39 41 42 41 39 38 32 25 21 20 18 17
21 21 23 26 28 29 30 32 33 33 33 33 34 33 33 32 31 32 31 27 29 29 31 33 35 36 36 34 36 39 40 39 39 41 44 42 41 39 32 26 23 21 20
21 21 24 27 29 29 31 32 34 34 34 34 35 34 32 31 31 29 28 29 31 32 32 33 35 36 37 37 34 35 34 38 38 40 42 42 43 41 37 31 27 25 23
22 22 25 27 29 30 31 32 33 34 34 35 35 33 31 28 28 28 29 32 33 33 33 34 35 33 31 33 31 32 32 32 32 35 37 40 42 42 40 37 32 29 27
22 24 26 28 28 29 31 31 32 32 33 36 33 30 27 26 28 30 30 33 34 35 35 34 31 32 32 33 33 33 33 33 33 31 29 31 35 39 39 38 34 33 30
22 24 26 27 28 28 30 31 31 32 33 36 32 29 25 24 30 30 31 34 36 34 33 30 30 30 31 32 33 34 33 32 32 31 31 32 34 36 38 38 36 35 34
22 25 26 26 27 27 29 30 31 32 32 34 32 29 29 25 30 28 31 35 36 34 33 28 30 30 31 31 33 33 33 32 33 32 32 34 34 36 40 44 45 47 28
23 24 25 25 26 27 28 29 30 30 32 32 31 28 29 28 32 25 31 34 35 34 32 28 30 31 33 33 31 32 31 31 32 32 33 33 35 37 39 43 46 49 51
22 22 23 24 25 26 27 28 29 29 29 31 27 28 26 26 27 28 28 32 34 31 32 29 31 33 33 32 30 30 30 30 31 31 32 33 34 35 38 42 45 47 52
20 22 22 23 24 25 25 26 27 28 28 27 28 27 26 25 26 26 28 34 31 29 28 30 31 32 31 30 29 29 29 30 30 31 32 33 35 36 38 40 43 45 47
20 21 22 22 24 24 24 25 26 26 27 26 26 27 27 25 26 25 27 31 30 26 26 30 31 31 30 30 29 29 29 29 30 30 31 32 33 35 37 39 40 41 42
19 20 21 22 23 23 24 23 25 26 26 25 26 26 26 26 27 24 25 28 27 24 25 28 31 30 30 31 28 29 28 28 29 29 29 30 30 31 33 35 37 37 36
17 18 20 21 21 22 23 23 24 25 25 25 26 26 25 26 27 26 26 26 27 23 24 28 30 30 31 30 29 29 28 28 29 28 29 29 30 30 31 32 34 35 36
16 18 18 19 20 22 22 22 23 24 24 24 25 25 25 26 26 27 26 27 26 27 26 26 28 30 32 28 28 28 27 28 29 29 29 29 30 30 31 31 32 33 34
14 16 17 18 19 21 21 21 22 22 22 23 24 25 25 26 26 27 27 26 26 25 25 27 29 32 32 29 29 28 27 28 28 30 31 30 31 31 31 31 31 31 32
13 15 16 17 18 18 20 20 21 21 21 22 23 24 25 26 26 27 27 27 25 26 27 26 29 32 32 31 30 30 29 28 30 32 31 32 32 32 32 32 32 31 31
12 13 14 15 16 17 18 19 19 19 20 21 22 23 24 25 26 26 27 27 26 27 27 28 29 31 32 32 32 31 31 30 30 34 31 32 33 34 33 33 33 32 31
11 12 12 13 15 16 17 17 17 18 19 19 21 22 23 24 26 26 27 27 27 26 27 27 29 31 32 34 33 32 32 32 31 35 31 34 31 34 34 34 34 33 32
10 11 11 13 14 15 16 16 16 17 18 19 20 22 23 24 25 26 26 27 28 27 28 29 30 31 33 35 33 34 35 34 31 35 33 34 33 33 35 35 35 34 33
8 9 10 12 13 14 14 14 15 16 17 18 19 21 24 24 25 25 25 26 28 29 29 30 32 33 35 37 38 36 36 36 28 37 36 33 34 32 34 35 35 35 34
7 8 9 10 11 12 12 13 14 15 16 18 17 21 23 24 26 25 24 26 27 29 30 31 33 34 36 36 38 37 37 37 33 37 38 34 35 33 33 34 36 36 34
5 6 7 9 11 10 10 11 13 14 15 17 18 20 23 24 25 26 24 26 28 29 27 29 32 33 36 37 38 39 39 37 31 36 38 34 36 33 31 34 37 35 36
4 5 6 8 9 10 9 10 11 12 13 16 18 20 22 23 25 25 25 26 28 30 31 28 30 32 34 35 35 36 36 37 28 33 39 33 36 34 31 33 36 35 35
3 5 5 5 9 10 9 10 13 11 10 15 17 19 21 23 24 25 25 26 28 30 30 30 31 33 35 36 37 36 38 38 36 31 39 33 36 37 30 33 35 36 34
3 7 6 6 8 10 9 11 14 8 10 13 16 19 21 22 23 24 25 27 29 31 31 31 32 33 35 36 37 36 37 36 36 33 38 35 35 35 31 31 34 35 33
Wind_Direction
353 352 351 348 346 346 346 344 342 340 338 338 338 337 335 332 331 328 325 323 323 319 316 313 311 308 304 301 297 292 286 280 277 277 277 276 271 265 254 246 239 230 225
354 357 356 354 352 350 349 347 345 343 341 340 338 338 335 334 332 330 328 324 318 318 321 320 315 312 308 301 297 294 290 284 277 273 273 273 272 269 261 248 242 234 229
358 0 358 354 352 352 350 348 346 344 343 342 338 339 338 337 336 333 331 336 331 325 319 314 311 310 308 307 303 298 288 286 282 275 271 270 270 270 265 255 245 239 233
358 359 355 353 352 353 351 348 343 341 341 340 338 338 339 340 338 340 340 337 331 326 320 318 314 311 309 305 307 306 302 288 284 280 273 270 269 269 267 258 251 244 237
356 357 355 353 352 351 348 346 343 342 341 340 339 339 339 343 344 340 337 334 329 325 321 319 317 316 316 313 312 311 309 307 302 289 280 272 268 267 271 263 254 249 244
355 354 352 351 350 349 348 348 346 345 344 340 339 341 345 349 346 343 339 336 331 326 321 319 319 315 316 314 314 312 309 305 303 301 296 288 276 269 272 272 257 251 244
355 352 349 349 348 350 348 348 347 345 344 342 342 342 342 341 346 347 348 342 337 331 327 326 326 324 319 315 313 311 310 310 305 302 297 293 284 277 272 272 275 256 242
355 353 351 350 350 350 350 349 348 346 346 346 343 339 336 337 339 344 345 343 339 337 333 333 331 328 323 319 316 313 311 308 306 304 299 294 289 282 275 270 270 275 240
354 354 353 351 351 351 349 350 350 349 347 347 353 348 337 333 336 339 341 342 340 341 339 343 338 330 324 319 317 315 315 311 307 305 301 299 292 286 281 274 269 268 270
354 354 354 353 353 354 352 352 354 354 354 348 354 356 355 348 340 335 342 344 338 345 344 346 342 335 327 323 318 316 316 316 311 308 305 300 297 293 286 279 274 271 268
355 354 355 356 355 356 357 357 357 357 357 357 356 354 353 351 350 345 337 337 341 346 349 349 344 339 332 330 326 323 323 320 316 312 308 305 301 297 291 285 279 275 270
354 356 356 357 358 358 358 0 360 360 359 357 356 355 353 353 351 352 346 342 343 342 340 347 341 339 337 330 328 326 327 325 320 316 313 309 306 302 296 289 285 280 274
351 354 355 355 358 359 359 5 1 358 359 360 359 358 359 357 355 359 356 350 349 346 342 341 331 339 337 334 330 332 328 327 327 324 323 320 316 311 304 297 291 286 282
353 355 356 359 0 359 359 4 1 1 3 4 4 0 360 357 357 358 358 353 348 353 344 329 329 340 337 332 330 330 334 332 332 329 329 328 325 320 314 307 299 294 287
354 356 0 1 360 357 3 4 2 3 6 9 6 5 1 354 357 356 356 351 348 344 315 312 321 336 333 327 327 328 332 336 340 338 334 332 331 327 324 317 308 301 295
0 2 1 0 1 358 0 3 7 8 11 11 9 8 4 354 354 355 354 344 345 349 324 319 330 336 334 329 327 326 325 339 335 342 343 339 337 335 330 325 319 311 303
2 5 1 359 360 0 4 9 11 14 17 13 11 9 5 1 356 353 354 348 343 340 328 344 339 338 337 332 329 329 330 335 340 336 339 343 341 338 336 331 327 321 315
6 10 6 4 4 6 9 13 15 19 17 13 9 5 5 2 358 356 352 345 340 337 340 333 338 338 338 335 333 334 335 335 337 339 336 337 341 340 338 335 332 327 322
11 10 11 7 9 12 13 16 22 25 20 18 11 4 3 3 360 359 356 351 346 344 344 346 340 339 340 340 336 337 336 335 338 337 336 339 339 341 340 337 335 332 327
11 10 8 9 8 12 13 16 21 23 19 18 13 3 358 357 357 356 357 356 353 352 350 351 349 346 344 341 344 339 333 334 336 339 335 339 337 339 341 339 336 333 330
4 9 12 10 10 11 12 20 21 18 18 14 10 359 358 357 355 352 358 358 356 355 355 354 353 352 347 344 341 338 337 333 339 340 334 334 334 334 338 339 337 334 331
11 11 16 18 15 14 21 25 25 19 16 5 10 357 354 353 350 351 359 0 359 356 355 355 354 354 349 348 343 339 337 337 336 339 331 329 333 331 336 337 336 335 331
16 16 16 17 11 18 28 26 21 13 12 6 6 353 349 349 346 350 359 358 354 353 1 1 357 356 351 348 345 343 342 339 340 337 335 330 332 325 330 336 337 333 332
5 7 11 15 16 14 29 22 13 6 3 2 357 350 348 348 346 350 353 354 354 353 352 2 2 359 355 352 350 349 347 345 346 343 342 332 331 322 322 331 335 333 331
11 8 11 25 12 12 28 13 1 5 21 3 356 348 348 350 351 355 356 356 353 353 357 3 2 359 355 352 351 349 346 344 340 337 340 333 330 324 318 325 330 330 328
15 7 22 27 12 11 13 1 353 29 17 4 352 344 346 351 352 356 357 356 354 353 356 358 358 358 356 354 352 351 347 343 340 333 337 333 329 329 316 320 324 324 323